EW7117 Weather Reports


time (UTC)temp
C
wind
direction
speed
KPH
gust
KPH
rain 1hr
cm
rain 24hr
cm
rain mn
cm
humidity
%
barometer
mb
20260507000055 7 252 1.6 8.0 0.00 1.70 1.22 79 1008.8
20260506234623 7 245 0.0 4.8 0.00 1.70 1.22 79 1008.8
20260506233053 7 227 0.0 9.7 0.00 1.70 1.22 81 1008.7
20260506231554 7 240 0.0 8.0 0.00 1.70 1.22 84 1008.7
20260506230051 7 248 0.0 4.8 0.00 1.70 1.22 83 1008.5
20260506224551 8 239 0.0 0.0 0.00 1.70 1.22 81 1008.3
20260506223057 8 229 0.0 0.0 0.00 1.70 1.22 81 1008.5
20260506221553 8 225 0.0 0.0 0.00 1.70 1.22 80 1008.3
20260506220050 8 153 0.0 0.0 0.00 1.70 1.22 78 1008.5
20260506214549 8 121 0.0 0.0 0.00 1.70 1.22 78 1008.3
20260506213048 8 121 0.0 0.0 0.00 1.70 1.22 78 1008.2
20260506211546 8 89 0.0 0.0 0.00 1.70 1.22 78 1008.2
20260506210046 8 85 0.0 0.0 0.00 1.70 1.22 79 1008.4
20260506204554 8 55 0.0 0.0 0.00 1.70 1.22 81 1008.4
20260506203045 7 59 0.0 0.0 0.00 1.70 1.22 82 1008.2
20260506201544 7 59 0.0 0.0 0.00 1.70 1.22 82 1008.3
20260506194549 7 34 0.0 0.0 0.00 1.70 1.22 83 1008.2
20260506193042 7 44 0.0 0.0 0.00 1.70 1.22 83 1008.6
20260506191541 7 44 0.0 0.0 0.00 1.70 1.22 83 1008.3
20260506190041 7 67 0.0 0.0 0.00 1.70 1.22 84 1008.2
20260506184541 6 74 0.0 0.0 0.00 1.70 1.22 85 1008.4
20260506183052 7 71 0.0 0.0 0.00 1.70 1.22 86 1008.3
20260506181540 6 62 0.0 0.0 0.00 1.70 1.22 86 1008.5
20260506180038 6 38 0.0 0.0 0.00 1.70 1.22 87 1008.4
20260506174536 6 68 0.0 0.0 0.00 1.70 1.22 87 1008.3
20260506173036 6 75 0.0 0.0 0.00 1.70 1.22 87 1008.2
20260506171542 6 73 0.0 12.9 0.00 1.70 1.22 87 1008.2
20260506170040 6 86 0.0 8.0 0.03 1.70 1.22 87 1008.3
20260506164544 6 63 0.0 12.9 0.03 1.70 1.22 88 1008.5
20260506163033 6 59 4.8 12.9 0.05 1.70 1.22 89 1008.7
20260506161538 6 36 0.0 0.0 0.03 1.68 1.19 90 1009.0
20260506160041 5 24 0.0 0.0 0.03 1.68 1.19 90 1009.2
20260506154530 5 36 0.0 0.0 0.03 1.68 1.19 90 1009.0
20260506153024 5 58 0.0 0.0 0.03 1.65 1.17 90 1008.9
20260506151532 6 20 0.0 11.3 0.05 1.65 1.17 90 1008.8
20260506150029 5 70 0.0 8.0 0.08 1.65 1.17 90 1008.7
20260506144511 5 44 0.0 0.0 0.13 1.65 1.17 91 1008.8
20260506143032 5 78 0.0 0.0 0.13 1.63 1.14 91 1008.9
20260506141508 5 78 0.0 0.0 0.13 1.60 1.12 90 1008.9
20260506140007 5 65 0.0 0.0 0.13 1.60 1.09 90 1008.9
20260506134503 5 68 0.0 0.0 0.10 1.55 1.04 90 1008.9
20260506133004 5 74 0.0 0.0 0.10 1.52 1.02 89 1008.7
20260506131502 5 74 0.0 0.0 0.10 1.50 0.99 90 1008.7
20260506130001 5 93 0.0 1.6 0.10 1.45 0.97 90 1008.7
20260506124559 5 73 0.0 0.0 0.08 1.42 0.94 91 1008.8
20260506123057 5 71 0.0 0.0 0.08 1.42 0.91 91 1008.9
20260506121526 5 42 0.0 0.0 0.08 1.40 0.89 91 1008.9
20260506120024 5 265 0.0 0.0 0.08 1.37 0.86 91 1008.8
20260506114528 5 265 0.0 0.0 0.13 1.37 0.86 91 1009.0
20260506113020 5 265 0.0 0.0 0.15 1.35 0.84 91 1009.2
20260506111517 5 265 0.0 0.0 0.18 1.32 0.81 91 1009.3
20260506110015 5 265 0.0 0.0 0.15 1.42 0.76 91 1009.3
20260506104513 5 265 0.0 0.0 0.18 1.42 0.71 91 1008.9
20260506103015 5 265 0.0 0.0 0.18 1.37 0.69 91 1009.1
20260506101513 5 265 0.0 0.0 0.18 1.32 0.64 91 1008.7
20260506100008 5 265 0.0 0.0 0.20 1.35 0.61 91 1008.9
20260506094514 6 265 0.0 0.0 0.20 1.30 0.56 91 1008.4
20260506093007 6 265 0.0 0.0 0.18 1.24 0.51 91 1008.5
20260506091504 6 265 0.0 0.0 0.15 1.19 0.46 91 1008.7
20260506090006 6 263 0.0 0.0 0.10 1.14 0.41 90 1009.1
20260506084505 6 262 0.0 0.0 0.05 1.09 0.36 90 1009.2
20260506083000 6 259 0.0 0.0 0.05 1.07 0.33 89 1009.0
20260506081554 6 257 0.0 0.0 0.05 1.04 0.30 89 1009.1
20260506073052 6 188 0.0 11.3 0.20 1.02 0.28 88 1008.4
20260506071605 6 182 3.2 19.3 0.20 0.99 0.25 89 1008.5
20260506061540 7 192 6.4 22.5 0.05 0.79 0.05 89 1008.7
20260506044531 7 205 0.0 0.0 0.03 0.71 0.00 89 1008.8
20260506043028 7 178 17.7 24.1 0.03 0.71 0.00 88 1008.6
20260506041556 8 190 0.0 17.7 0.03 0.71 0.00 88 1008.6
20260506040040 8 188 4.8 24.1 0.00 0.71 0.71 89 1008.7
20260506034539 8 201 0.0 14.5 0.00 0.71 0.71 89 1008.8
20260506033036 8 191 0.0 16.1 0.00 0.71 0.71 89 1008.7
20260506031535 8 203 1.6 19.3 0.03 0.71 0.71 89 1008.4
20260506030035 8 192 0.0 14.5 0.03 0.71 0.71 89 1008.1
20260506024537 8 201 0.0 14.5 0.03 0.71 0.71 89 1008.3
20260506023023 8 189 8.0 19.3 0.05 0.69 0.69 89 1007.9
20260506021520 8 192 0.0 22.5 0.13 0.69 0.69 89 1007.8
20260506020023 8 188 0.0 14.5 0.20 0.69 0.69 89 1007.6
20260506014519 8 186 12.9 19.3 0.23 0.69 0.69 89 1007.5
20260506013023 8 221 0.0 11.3 0.18 0.61 0.61 88 1007.7
20260506011512 9 225 0.0 0.0 0.13 0.56 0.56 88 1007.8
20260506010012 9 186 0.0 0.0 0.10 0.48 0.48 87 1007.6
20260506004517 9 240 0.0 9.7 0.13 0.46 0.46 87 1007.4
20260506003006 9 225 0.0 11.3 0.15 0.43 0.43 86 1007.1
20260506001503 10 228 0.0 12.9 0.18 0.43 0.43 85 1006.9